EW1043 Weather Reports


time (UTC)temp
C
wind
direction
speed
KPH
gust
KPH
rain 1hr
cm
rain 24hr
cm
rain mn
cm
humidity
%
barometer
mb
20260505023027 19 162 0.0 4.8 0.00 0.00 0.00 70 1013.7
20260505021526 19 146 1.6 6.4 0.00 0.00 0.00 69 1013.7
20260505020034 20 147 0.0 6.4 0.00 0.00 0.00 68 1013.6
20260505014534 20 146 3.2 8.0 0.00 0.00 0.00 67 1013.5
20260505013031 20 130 1.6 4.8 0.00 0.00 0.00 66 1013.2
20260505011534 20 141 1.6 6.4 0.00 0.00 0.00 66 1013.2
20260505010023 21 159 1.6 8.0 0.00 0.00 0.00 64 1013.2
20260505004529 21 154 1.6 11.3 0.00 0.00 0.00 61 1013.2
20260505003036 22 162 3.2 9.7 0.00 0.00 0.00 59 1013.5
20260505001521 23 186 4.8 12.9 0.00 0.00 0.00 55 1013.5
20260505000017 24 186 6.4 12.9 0.00 0.00 0.00 53 1013.7
20260504234517 24 182 3.2 9.7 0.00 0.00 0.00 50 1013.6
20260504233017 25 147 3.2 9.7 0.00 0.00 0.00 47 1013.7
20260504231517 26 146 3.2 9.7 0.00 0.00 0.00 46 1013.8
20260504230013 26 162 4.8 14.5 0.00 0.00 0.00 46 1013.9
20260504224517 26 144 3.2 9.7 0.00 0.00 0.00 45 1014.0
20260504223015 26 225 1.6 9.7 0.00 0.00 0.00 44 1014.1
20260504221510 26 198 3.2 9.7 0.00 0.00 0.00 43 1014.1
20260504220008 26 164 6.4 14.5 0.00 0.00 0.00 43 1014.5
20260504214506 27 217 3.2 9.7 0.00 0.00 0.00 45 1014.3
20260504213013 26 206 3.2 11.3 0.00 0.00 0.00 46 1014.4
20260504211503 26 213 3.2 8.0 0.00 0.00 0.00 46 1014.6
20260504210002 26 205 4.8 12.9 0.00 0.00 0.00 46 1014.7
20260504204503 26 195 4.8 14.5 0.00 0.00 0.00 47 1014.7
20260504203108 26 158 3.2 16.1 0.00 0.00 0.00 49 1015.1
20260504201611 26 290 4.8 9.7 0.00 0.00 0.00 50 1015.2
20260504200055 26 193 6.4 12.9 0.00 0.00 0.00 48 1015.5
20260504194556 26 260 6.4 14.5 0.00 0.00 0.00 47 1015.7
20260504193056 26 264 0.0 11.3 0.00 0.00 0.00 49 1016.1
20260504191607 26 182 4.8 14.5 0.00 0.00 0.00 48 1016.3
20260504184551 26 140 4.8 12.9 0.00 0.00 0.00 48 1016.5
20260504183042 26 198 4.8 12.9 0.00 0.00 0.00 49 1016.7
20260504181540 25 107 6.4 12.9 0.00 0.00 0.00 49 1016.9
20260504180039 25 179 8.0 12.9 0.00 0.00 0.00 49 1017.1
20260504174542 25 205 6.4 14.5 0.00 0.00 0.00 49 1017.1
20260504173037 25 200 3.2 12.9 0.00 0.00 0.00 48 1017.2
20260504171539 25 134 3.2 16.1 0.00 0.00 0.00 50 1017.2
20260504081540 13 190 0.0 0.0 0.00 0.00 0.00 79 1017.5
20260504050019 16 201 0.0 0.0 0.00 0.00 0.00 72 1018.8
20260504044515 16 200 0.0 0.0 0.00 0.00 0.00 71 1019.1
20260504043014 17 200 0.0 0.0 0.00 0.00 0.00 71 1019.1
20260504041515 17 239 0.0 4.8 0.00 0.00 0.00 69 1019.2
20260504040009 17 242 1.6 6.4 0.00 0.00 0.00 69 1019.2
20260504034509 17 221 0.0 3.2 0.00 0.00 0.00 69 1019.2
20260504033009 17 219 0.0 4.8 0.00 0.00 0.00 67 1019.2
20260504031509 18 232 1.6 8.0 0.00 0.00 0.00 66 1019.3
20260504030008 18 203 1.6 6.4 0.00 0.00 0.00 65 1019.3
20260504024507 19 146 1.6 6.4 0.00 0.00 0.00 63 1019.2